星链-4569 (STARLINK-4569 )

导读

STARLINK-4569是美国太空探索技术公司(SpaceX)星链(Starlink)项目的卫星,于2022年8月31日发射升空,隶属于美国。星链项目旨在构建全球卫星互联网星座,该卫星入轨后为全球提供低延迟、高速率的宽带互联网服务,是星链大规模星座部署中的组成单元,助力完成全球网络覆盖目标。

基本信息
目录编号:
53687
目录名称:
STARLINK-4569
国际标识:
2022-105AR
轨道中心:
EARTH
卫星名称:
星链-4569
卫星全名:
星链-4569 (STARLINK-4569 )
卫星状态:
在轨 (已飞行1465 天)
发射日期:
2022-08-31 UTC
国别 :
美国 (US)
星等 :
--
轨道信息
数据来源 国际轨道数据
星历时间: 2026-09-03T11:40:11+0800
1天前
查看轨道信息
半长轴: 6843.704km
偏心率: 0.0001699
轨道倾角: 97.285°
近地点辐角 91.704°
升交点赤经 123.122°
平近点角 268.440°
近地点: 464.404km
远地点: 466.73km
周期: 93.907分钟
每日圈数: 15.334372
详细信息
固有亮度:
5
最大亮度:
2.5
卫星平台:
Starlink v1.5
覆盖范围:
全球
运营商:
太空探索技术公司
运营商所在国:
美国
制造商(研发单位):
太空探索技术公司
制造商所在国:
美国
使用方式:
暂无
卫星简介
星链(Starlink)计划是由太空探索技术公司(SpaceX)提出的一个巨型低轨卫星互联网星座项目,计划在2019年至2024年间在太空搭建由约1.2万颗卫星组成的“星链”网络,其中1584颗将部署在地球上空550千米处的近地轨道,并从2020年开始工作。该卫星仍在工作。
2D轨道图
3D轨道图
轨道高度分析图
轨道倾角分析图
轨道综合分析图
查看轨道综合分析图
交会数据列表
事件ID 空间交会对象 最接近时刻(TCA) 交会距离 交会风险概率(CRP) 交会风险指数(CRI) 操作
CDM_260903-231604-704105-368724
2026-09-03T
23:16:29+0000
1.735 km
极远距离
4.307563E-6 低风险 0.48
CDM_260904-014905-299005-368722
2026-09-04T
01:49:32+0000
2.155 km
极远距离
2.170989E-6 低风险 0.42
CDM_260904-071005-357005-368723
2026-09-04T
07:10:34+0000
2.660 km
极远距离
1.571024E-6 低风险 0.39
CDM_260904-162905-368706-542121
2026-09-04T
16:29:52+0000
2.641 km
极远距离
9.301653E-7 极低风险 0.34